www.pogodaiklimat.ru
ПОГОДА в Лемланд Нихамн
Время
(UTC), дата
13 9.12
14 9.12
15 9.12
16 9.12
17 9.12
18 9.12
19 9.12
20 9.12
21 9.12
22 9.12
23 9.12
00 10.12
01 10.12
02 10.12
03 10.12
04 10.12
05 10.12
06 10.12
07 10.12
08 10.12
09 10.12
10 10.12
11 10.12
12 10.12
13 10.12
14 10.12
15 10.12
16 10.12
17 10.12
18 10.12
19 10.12
20 10.12
21 10.12
22 10.12
23 10.12
00 11.12
01 11.12
02 11.12
03 11.12
04 11.12
05 11.12
06 11.12
08 11.12
09 11.12
10 11.12
11 11.12
12 11.12
13 11.12
14 11.12
15 11.12
16 11.12
17 11.12
18 11.12
19 11.12
20 11.12
21 11.12
22 11.12
23 11.12
00 12.12
01 12.12
02 12.12
03 12.12
04 12.12
05 12.12
06 12.12
07 12.12
08 12.12
09 12.12
10 12.12
11 12.12
12 12.12
13 12.12
14 12.12
15 12.12
16 12.12
17 12.12
18 12.12
19 12.12
20 12.12
21 12.12
22 12.12
23 12.12
00 13.12
01 13.12
02 13.12
03 13.12
04 13.12
05 13.12
06 13.12
07 13.12
08 13.12
09 13.12
10 13.12
11 13.12
12 13.12
13 13.12
14 13.12
15 13.12
16 13.12
17 13.12
18 13.12
19 13.12
20 13.12
21 13.12
22 13.12
23 13.12
00 14.12
01 14.12
02 14.12
03 14.12
04 14.12
05 14.12
06 14.12
07 14.12
08 14.12
09 14.12
10 14.12
11 14.12
12 14.12
13 14.12
14 14.12
15 14.12
16 14.12
17 14.12
18 14.12
19 14.12
20 14.12
21 14.12
22 14.12
23 14.12
00 15.12
01 15.12
02 15.12
03 15.12
04 15.12
05 15.12
06 15.12
07 15.12
08 15.12
09 15.12
10 15.12
11 15.12
12 15.12
13 15.12
14 15.12
15 15.12
16 15.12
17 15.12
18 15.12
19 15.12
20 15.12
21 15.12
22 15.12
23 15.12
00 16.12
01 16.12
02 16.12
03 16.12
04 16.12
05 16.12
06 16.12
07 16.12
08 16.12
09 16.12
10 16.12
11 16.12
12 16.12
Ветер
(напр.,м/с)
Видим. Явления Облачность Т
(С)
Тd
(С)
f
(%)
Тe
(С)
Тes
(С)
Комфортность P
(гПа)
Po
(гПа)
Тmin
(С)
Tmax
(С)
R
(мм)
R24
(мм)
S
(см)
ЮЗ 12-14
{15}
19 км в посл. час морось 9/9 600 м
[]
+6.2 +4.1 86 -0 -0 982.8 981.6
ЮЗ 12-14
{14}
18 км 9/9 1000 м
[]
+6.2 +4.1 86 -0 -0 983.6 982.4
З 5-7
{15}
22 км {ливн. осадки} 10/0 300 м
[]
+5.1 +3.9 92 0 0 985.1 983.9
СЗ 6-8
{19}
15 км слаб. морось 10/0 300 м
[]
+4.4 +3.6 95 -1 -1 986.3 985.0
СВ 3-4
{7}
9000 м в посл. час морось 10/0 300 м
[]
+3.9 +3.0 94 -0 -0 987.6 986.4
СВ 5-7
{7}
12 км ливневой дождь {морось} 10/0 100 м
[]
+2.4 +1.6 94 -3 -3 988.7 987.4 +2.4 +6.5
С 7-9
{9}
15 км в посл. час морось 10/0 100 м
[]
+2.0 +1.3 95 -5 -5 990.2 988.9
С 8-11
{11}
30 км 10/10 100 м
[]
+1.9 +1.0 94 -5 -5 991.3 990.0
С 8-9
{11}
26 км ливневой дождь {морось} 10/10 200 м
[]
+1.8 +0.7 92 -5 -5 992.7 991.4
С 8-10
{12}
12 км слаб. дождь 10/10 200 м
[]
+1.3 +0.4 94 -6 -6 994.0 992.8

{13}
3500 м слаб. снег 10/10 100 м
[]
+1.0 +0.2 94 995.5 994.2
С 9-13
{13}
2800 м слаб. снег 10/0 200 м
[]
+0.5 -0.4 94 -7 -7 997.0 995.7
С 8-10
{12}
12 км слаб. ледяной дождь 10/10 200 м
[]
+0.7 -0.4 92 -7 -7 998.5 997.2
С 8-10
{11}
50 км в посл. час дождь 9/5 600 м
[]
+1.4 -1.5 81 -6 -6 1000.4 999.1
С 9-11
{12}
50 км {снег, дождь} 9/0
[]
+1.3 -1.9 79 -6 -6 1001.5 1000.2
С 9-11
{12}
50 км 9/0
[]
+1.3 -2.0 79 -6 -6 1002.8 1001.5
С 7-9
{12}
50 км 1/0 600 м
[]
+1.0 -2.1 80 -6 -6 1004.1 1002.8
СЗ 9-11
{11}
40 км {снег, дождь} ясно +1.3 -2.3 77 -6 -6 1005.2 1003.9 +0.3 +2.5
С 9-12
{12}
45 км 9/0 600 м
[]
+1.5 -2.0 78 -6 -6 1006.5 1005.2
СЗ 9-13
{13}
35 км 4/4 600 м
[]
+1.9 -1.8 76 -5 -5 1007.6 1006.3
С 9-12
{13}
40 км 9/0 600 м
[]
+2.1 -2.2 73 -5 -5 1009.3 1008.0
СЗ 9-11
{13}
50 км 8/0 1000 м
[]
+2.3 -1.8 74 -5 -5 1009.9 1008.7
С 9-12
{13}
50 км 9/0 600 м
[]
+2.0 -2.8 70 -5 -5 1010.8 1009.5
С 8-11
{13}
40 км 9/0 600 м
[]
+1.4 -2.7 74 -5 -5 1011.9 1010.6
С 7-11
{11}
50 км 9/0 600 м
[]
+1.1 -3.4 72 -5 -5 1013.1 1011.8
С 4-5
{9}
50 км 9/0 600 м
[]
+1.2 -3.2 72 -4 -4 1014.0 1012.7
С 5-6
{8}
50 км 9/0 600 м
[]
+1.0 -3.3 73 -5 -5 1014.7 1013.4
СЗ 4-6
{6}
50 км 8/0 600 м
[]
+1.0 -3.3 73 -4 -4 1015.5 1014.2
З 3-4
{6}
50 км 8/0 600 м
[]
+1.0 -3.6 71 -3 -3 1015.7 1014.4
ЮЗ 4-5
{5}
50 км 6/0 600 м
[]
+1.1 -3.0 74 -4 -4 1015.7 1014.4 +0.7 +2.3
Ю 6-8
{8}
50 км 8/0 600 м
[]
+1.1 -3.0 74 -5 -5 1015.5 1014.2
Ю 7-9
{9}
50 км 1/0
[]
+1.4 -2.1 77 -5 -5 1015.0 1013.7
Ю 10-12
{12}
50 км 9/1 300 м
[]
+2.0 -1.4 78 -5 -5 1014.6 1013.3
Ю 12-14
{14}
50 км 5/0
[]
+2.4 -1.6 75 -5 -5 1014.1 1012.8
Ю 13-15
{15}
45 км 9/1 600 м
[]
+3.0 -0.8 76 -5 -5 1013.4 1012.1
Ю 15-17
{17}
40 км 9/1 600 м
[]
+3.8 -0.4 74 -4 -4 1012.1 1010.8
Ю 16-19
{19}
30 км 9/3 600 м
[]
+4.1 +0.1 75 -4 -4 1011.1 1009.8
Ю 17-20
{20}
26 км 9/1 600 м
[]
+4.1 -0.2 74 -4 -4 1010.0 1008.7
Ю 19-22
{22}
20 км 10/0
[]
+4.4 +0.2 74 -4 -4 1008.4 1007.1
Ю 19-23
{25}
17 км 10/0
[]
+4.8 +0.2 72 -3 -3 1007.4 1006.1
Ю 20-24
{26}
13 км 10/0
[]
+5.0 +0.1 71 -3 -3 1006.1 1004.8
Ю 22-28
{28}
10 км 9/9 600 м
[]
+5.1 +1.3 76 -3 -3 1004.8 1003.6 +0.9 +5.2
Ю 22-27
{27}
5000 м морось 10/0 300 м
[]
+5.1 +3.1 87 -4 -4 1003.4 1002.2
Ю 21-25
{26}
7000 м в посл. час морось 10/10 300 м
[]
+5.4 +2.9 84 -3 -3 1003.2 1001.9
ЮЗ 19-24
{25}
6000 м слаб. ливневой дождь 10/0 300 м
[]
+5.6 +3.4 86 -2 -2 1002.8 1001.5
ЮЗ 18-22
{24}
3900 м морось 10/0 300 м
[]
+5.6 +4.0 89 -2 -2 1002.6 1001.3
ЮЗ 19-22
{23}
5000 м слаб. морось 10/0 300 м
[]
+5.6 +3.9 89 -3 -3 1002.5 1001.3
ЮЗ 16-19
{22}
5000 м морось 10/10 300 м
[]
+5.5 +4.2 91 -2 -2 1002.8 1001.5
ЮЗ 15-18
{19}
9000 м слаб. ливневой дождь 9/0 300 м
[]
+5.4 +3.9 90 -2 -2 1003.2 1002.0
ЮЗ 14-17
{19}
9000 м дымка 9/9 200 м
[]
+5.6 +4.3 91 -2 -2 1003.6 1002.3
ЮЗ 13-15
{16}
10 км 10/0 300 м
[]
+5.6 +4.3 91 -1 -1 1003.8 1002.5
ЮЗ 12-14
{15}
12 км 9/0 200 м
[]
+5.6 +4.3 91 -1 -1 1004.1 1002.9
ЮЗ 11-14
{14}
13 км 9/9 200 м
[]
+5.5 +4.3 92 -1 -1 1004.1 1002.9 +4.9 +5.7
ЮЗ 10-11
{13}
16 км 6/6 300 м
[]
+5.5 +4.1 91 -1 -1 1004.3 1003.0
ЮЗ 9-10
{12}
22 км 10/0 300 м
[]
+5.5 +3.9 89 -1 -1 1004.5 1003.3
ЮЗ 8-9
{11}
19 км 10/0 300 м
[]
+5.5 +4.1 91 -0 -0 1004.5 1003.3
ЮЗ 8-9
{10}
15 км 10/0 300 м
[]
+5.6 +4.5 93 -0 -0 1004.3 1003.0
Ю 9-10
{10}
11 км морось 10/0 200 м
[]
+5.5 +4.7 95 -1 -1 1003.9 1002.6
Ю 12-14
{14}
10 км морось {ливн. осадки} 10/0 100 м
[]
+5.4 +4.6 95 -2 -2 1003.6 1002.3
Ю 13-15
{15}
11 км слаб. дождь 10/0 200 м
[]
+5.2 +4.1 93 -2 -2 1003.4 1002.1
Ю 12-14
{15}
7000 м слаб. дождь 10/10 200 м
[]
+5.0 +3.9 93 -2 -2 1003.2 1001.9
Ю 12-14
{14}
15 км слаб. морось {дождь} 10/0 300 м
[]
+5.0 +3.6 91 -2 -2 1002.7 1001.5
Ю 12-14
{15}
7000 м слаб. дождь 10/0 200 м
[]
+4.8 +3.6 92 -2 -2 1002.4 1001.2
Ю 13-15
{15}
8000 м слаб. дождь 10/0 300 м
[]
+4.7 +3.1 89 -3 -3 1002.1 1000.9
Ю 13-15
{15}
8000 м морось {дождь} 10/10 200 м
[]
+4.4 +3.0 91 -3 -3 1001.9 1000.7 +4.3 +5.6
Ю 13-15
{15}
7000 м морось 10/10 200 м
[]
+4.6 +3.2 91 -3 -3 1001.7 1000.5
Ю 14-16
{16}
8000 м морось 10/10 300 м
[]
+4.3 +2.7 89 -3 -3 1001.8 1000.5
Ю 14-16
{17}
8000 м морось 10/0 300 м
[]
+4.6 +2.8 88 -3 -3 1001.6 1000.4
Ю 14-16
{17}
13 км в посл. час морось 10/0 300 м
[]
+4.9 +2.6 85 -3 -3 1001.3 1000.0
Ю 14-16
{17}
9000 м дымка 10/0 300 м
[]
+4.6 +2.5 86 -3 -3 1000.8 999.5
Ю 15-17
{18}
14 км {морось, туман} 10/10 600 м
[]
+4.9 +1.7 80 -3 -3 1000.4 999.1
Ю 14-17
{17}
11 км 10/10 300 м
[]
+4.5 +1.7 82 -3 -3 1000.0 998.8
Ю 14-16
{17}
15 км ливневой дождь 10/10 600 м
[]
+4.1 0.0 75 -3 -3 999.7 998.4
Ю 14-16
{17}
20 км {ливн. осадки, морось} 10/10 600 м
[]
+4.2 +0.3 76 -3 -3 999.0 997.8
Ю 12-14
{16}
24 км 10/10 1000 м
[]
+4.2 +0.6 77 -3 -3 998.4 997.1
Ю 11-12
{15}
21 км 8/8 1320 м
[]
+4.3 +1.1 80 -3 -3 997.9 996.7
Ю 11-14
{14}
11 км ливневой дождь 10/10 300 м
[]
+3.8 +1.9 87 -3 -3 997.3 996.0 +3.4 +5.1
Ю 11-13
{16}
14 км слаб. ливневой дождь 10/10 300 м
[]
+3.4 +1.8 89 -4 -4 997.2 995.9
Ю 11-13
{14}
22 км в посл. час дождь 10/10 600 м
[]
+4.5 +0.5 75 -2 -2 996.8 995.5
Ю 11-13
{14}
22 км {ливн. осадки} 10/10 1470 м
[]
+4.6 +0.6 75 -2 -2 996.3 995.0
ЮЗ 13-15
{15}
5000 м морось 10/10 300 м
[]
+2.8 +1.3 90 -5 -5 996.3 995.0
Ю 9-11
{13}
12 км в посл. час морось 9/9 1500 м
[]
+4.2 +1.6 83 -2 -2 996.1 994.8
ЮЗ 10-12
{12}
12 км 10/10 600 м
[]
+4.7 +1.7 81 -2 -2 996.0 994.7
Ю 11-13
{13}
9000 м осадки 10/10 750 м
[]
+4.7 +2.0 83 -2 -2 995.9 994.6
Ю 11-13
{14}
8000 м слаб. ливневой дождь 10/10 300 м
[]
+4.9 +3.3 89 -2 -2 996.0 994.8
ЮЗ 7-8
{12}
18 км 10/10 1500 м
[]
+5.0 +3.2 88 -1 -1 996.3 995.0
ЮЗ 8-9
{9}
17 км 10/10 1500 м
[]
+4.8 +3.1 89 -1 -1 996.5 995.3
ЮЗ 9-10
{10}
17 км 9/9 1500 м
[]
+4.8 +2.7 86 -2 -2 997.1 995.8
Ю 9-11
{11}
18 км 6/6 1000 м
[]
+4.8 +2.9 87 -2 -2 997.1 995.8 +2.6 +5.1
Ю 8-9
{10}
30 км 8/8 1000 м
[]
+4.9 +2.3 83 -1 -1 997.4 996.2
Ю 6-7
{9}
35 км 9/9 1500 м
[]
+5.0 +3.0 87 -0 -0 997.8 996.5
Ю 7-8
{8}
30 км 10/10 1500 м
[]
+5.5 +3.7 88 0 0 998.2 996.9
Ю 10-11
{11}
40 км 10/10 1110 м
[]
+5.4 +2.2 80 -1 -1 998.1 996.8
Ю 7-8
{10}
35 км 10/10 1500 м
[]
+5.5 +3.4 86 0 0 997.8 996.6
Ю 5-6
{8}
30 км 10/10 1500 м
[]
+5.3 +3.2 86 +1 +1 997.8 996.5
Ю 9-10
{11}
23 км 10/10 1500 м
[]
+5.3 +2.7 83 -1 -1 997.5 996.3
ЮВ 9-11
{12}
19 км 8/8 1500 м
[]
+5.4 +3.0 85 -1 -1 997.5 996.3
ЮВ 10-13
{13}
19 км 10/10 1500 м
[]
+5.2 +3.0 86 -1 -1 997.4 996.1
ЮВ 11-13
{13}
10 км морось 10/10 1500 м
[]
+4.8 +3.0 88 -2 -2 997.2 996.0
ЮВ 11-13
{14}
17 км в посл. час морось 9/9 660 м
[]
+4.9 +2.7 86 -2 -2 996.8 995.6
ЮВ 11-13
{14}
19 км морось {ливн. осадки, дождь} 9/9 1380 м
[]
+4.8 +3.0 88 -2 -2 996.5 995.3 +4.7 +5.7
ЮВ 13-15
{15}
16 км слаб. ливневой дождь 10/10 300 м
[]
+4.7 +3.1 89 -3 -3 996.1 994.9
ЮВ 14-16
{16}
20 км слаб. дождь 10/10 300 м
[]
+4.7 +3.2 90 -3 -3 995.6 994.4
ЮВ 13-15
{16}
27 км ливневой дождь 10/10 300 м
[]
+4.7 +3.0 89 -3 -3 995.6 994.3
ЮВ 13-16
{16}
19 км слаб. ливневой дождь 10/10 300 м
[]
+4.6 +2.6 87 -3 -3 995.0 993.8
ЮВ 14-16
{17}
19 км слаб. ливневой дождь 10/10 300 м
[]
+4.6 +2.6 87 -3 -3 994.5 993.2
ЮВ 14-17
{18}
25 км ливневой дождь 10/10 300 м
[]
+4.7 +2.5 86 -3 -3 994.0 992.8
ЮВ 14-17
{18}
14 км в посл. час осадки 10/10 300 м
[]
+4.4 +2.4 87 -3 -3 993.5 992.3
ЮВ 12-15
{19}
12 км слаб. ливневой дождь 10/10 300 м
[]
+4.1 +2.3 88 -3 -3 993.2 991.9
ЮВ 13-17
{17}
10 км слаб. дождь 10/10 200 м
[]
+3.6 +2.2 91 -4 -4 992.8 991.5
ЮВ 12-14
{16}
11 км слаб. дождь 10/10 300 м
[]
+3.8 +2.2 89 -4 -4 992.1 990.9
ЮВ 12-15
{15}
18 км в посл. час дождь 10/10 200 м
[]
+4.6 +2.7 87 -3 -3 991.6 990.4
ЮВ 12-14
{17}
15 км слаб. морось {дождь} 10/10 300 м
[]
+4.6 +2.8 88 -3 -3 991.4 990.1 +3.6 +4.9
ЮВ 11-13
{15}
6000 м морось 10/10 300 м
[]
+4.4 +3.0 91 -3 -3 991.4 990.1
ЮВ 13-16
{16}
8000 м слаб. дождь 10/10 200 м
[]
+4.5 +3.0 90 -3 -3 991.4 990.2
ЮВ 13-16
{16}
22 км морось {дождь} 10/10 1200 м
[]
+4.8 +3.1 89 -3 -3 991.5 990.2
ЮВ 12-17
{17}
11 км слаб. ливневой дождь 10/10 300 м
[]
+4.9 +3.5 91 -2 -2 991.1 989.9
ЮВ 12-15
{16}
16 км в посл. час морось 9/9 300 м
[]
+5.0 +3.4 89 -2 -2 990.7 989.5
ЮВ 11-13
{15}
19 км в посл. час дождь со снегом {ливн. осадки} 9/9 400 м
[]
+5.1 +3.2 88 -2 -2 990.5 989.2
ЮВ 12-15
{16}
8000 м ливневой дождь 10/10 300 м
[]
+4.7 +3.3 91 -3 -3 990.4 989.1
ЮВ 13-17
{17}
6000 м слаб. дождь 10/10 300 м
[]
+4.6 +3.0 89 -3 -3 990.3 989.1
ЮВ 13-15
{16}
9000 м морось {ливн. осадки, дождь} 10/10 200 м
[]
+4.4 +3.0 91 -3 -3 990.3 989.0
ЮВ 14-17
{17}
12 км морось 10/10 300 м
[]
+4.5 +3.1 91 -3 -3 990.0 988.8
ЮВ 13-16
{16}
8000 м слаб. дождь 10/10 300 м
[]
+4.6 +3.1 90 -3 -3 989.8 988.5
ЮВ 12-16
{17}
6000 м слаб. дождь 10/10 200 м
[]
+4.6 +3.3 91 -3 -3 989.4 988.2 +4.2 +5.2
ЮВ 14-17
{18}
15 км морось 10/10 300 м
[]
+5.1 +3.4 89 -2 -2 989.0 987.7
Ю 16-20
{20}
5000 м слаб. ливневой дождь 10/10 300 м
[]
+5.0 +3.6 91 -3 -3 989.0 987.7
Ю 13-15
{18}
22 км в посл. час дождь со снегом {ливн. осадки} 10/10 300 м
[]
+5.3 +4.0 91 -2 -2 989.1 987.8
Ю 14-17
{17}
9000 м слаб. ливневой дождь 10/10 300 м
[]
+5.3 +3.9 91 -2 -2 989.2 988.0
Ю 13-15
{16}
10 км морось 10/10 300 м
[]
+5.3 +4.0 91 -2 -2 989.3 988.0
Ю 13-16
{17}
6000 м слаб. дождь 10/10 200 м
[]
+5.1 +4.0 93 -2 -2 989.3 988.0
ЮВ 11-13
{16}
27 км слаб. морось 10/10 300 м
[]
+5.3 +3.9 91 -1 -1 989.2 988.0
Ю 9-11
{12}
17 км слаб. ливневой дождь 10/10 300 м
[]
+5.1 +3.9 92 -1 -1 989.1 987.9
Ю 7-8
{9}
30 км {ливн. осадки, дождь} 10/9 600 м
[]
+5.7 +4.1 89 0 0 989.3 988.0
Ю 8-9
{11}
18 км слаб. ливневой дождь 10/10 200 м
[]
+5.2 +4.2 93 -1 -1 989.4 988.1
Ю 8-10
{10}
9000 м слаб. ливневой дождь 9/9 870 м
[]
+5.0 +3.8 92 -1 -1 989.4 988.1
Ю 8-9
{9}
30 км {ливн. осадки, дождь} 5/5 600 м
[]
+5.6 +4.1 90 -0 -0 989.6 988.3 +4.6 +5.7
Ю 10-12
{13}
8000 м слаб. дождь 10/10 300 м
[]
+4.9 +3.4 90 -2 -2 990.0 988.7
Ю 9-11
{12}
30 км 10/10 300 м
[]
+5.4 +4.1 91 -1 -1 990.2 989.0
Ю 8-9
{11}
35 км {ливн. осадки, дождь} 9/9 1020 м
[]
+5.5 +4.1 91 -0 -0 990.3 989.0
Ю 6-7
{12}
35 км в посл. час осадки 9/9 600 м
[]
+5.3 +3.8 90 0 0 990.3 989.1
Ю 9-12
{12}
12 км слаб. ливневой дождь 9/9 300 м
[]
+5.5 +4.1 91 -1 -1 990.3 989.0
Ю 8-9
{14}
30 км в посл. час дождь со снегом {ливн. осадки} 10/10 660 м
[]
+5.2 +3.9 91 -1 -1 990.1 988.8
Ю 10-12
{12}
11 км морось 10/10 600 м
[]
+4.9 +3.7 92 -2 -2 990.0 988.8
Ю 6-7
{9}
30 км 9/9 600 м
[]
+5.3 +4.1 92 0 0 990.0 988.7
Ю 8-10
{11}
10 км {ливн. осадки, дождь} 10/10 600 м
[]
+5.1 +3.8 91 -1 -1 989.9 988.7
Ю 7-8
{10}
11 км слаб. ливневой дождь 10/10 300 м
[]
+4.6 +3.6 93 -1 -1 989.9 988.7
Ю 6-7
{9}
26 км слаб. ливневой дождь 10/10 300 м
[]
+4.6 +3.9 95 -1 -1 989.7 988.5
ЮЗ 6-7
{11}
40 км ливневой дождь 10/10 720 м
[]
+4.6 +3.4 92 -1 -1 989.7 988.5 +4.4 +5.7
Ю 8-9
{9}
17 км 9/8 900 м
[]
+5.1 +4.0 93 -1 -1 989.5 988.3
Ю 6-7
{8}
16 км 4/1 300 м
[]
+5.1 +3.2 88 -0 -0 989.6 988.3
ЮЗ 9-11
{13}
30 км {ливн. осадки} 9/6 300 м
[]
+4.0 +2.3 89 -3 -3 989.4 988.1
ЮЗ 4-5
{9}
35 км 5/5 600 м
[]
+4.0 +2.5 90 -1 -1 989.4 988.2
Ю 1-2
{4}
25 км морось 10/10 1000 м
[]
+4.0 +2.2 88 +3 +3 989.2 988.0
В 2-3
{3}
29 км ливневой дождь 10/9 300 м
[]
+4.0 +2.5 90 +1 +1 989.6 988.4
СВ 4-5
{5}
13 км слаб. ливневой дождь 10/10 200 м
[]
+3.7 +2.8 94 -1 -1 990.0 988.7
С 4-4
{5}
18 км слаб. дождь 10/10 300 м
[]
+3.6 +2.9 95 -1 -1 990.6 989.4
С 4-5
{5}
35 км морось {ливн. осадки, дождь} 10/10 300 м
[]
+3.8 +3.0 95 -1 -1 991.4 990.1
С 4-5
{6}
19 км слаб. морось 10/10 840 м
[]
+4.1 +3.2 94 -1 -1 992.4 991.2
СЗ 6-7
{7}
26 км осадки 10/9 1500 м
[]
+4.3 +3.4 94 -1 -1 993.3 992.1
СЗ 8-9
{9}
18 км в посл. час снег {ливн. осадки, дождь} 9/8 1300 м
[]
+4.4 +3.0 91 -2 -2 994.4 993.2 +3.5 +5.2
З 8-9
{10}
30 км в посл. час морось 10/10 660 м
[]
+3.9 +2.6 91 -2 -2 995.5 994.2
З 9-11
{11}
25 км 9/9 900 м
[]
+3.8 +2.4 91 -3 -3 996.8 995.5
З 11-12
{13}
27 км {ливн. осадки} 10/10 300 м
[]
+3.7 +2.0 89 -4 -4 997.9 996.6
З 10-11
{13}
30 км 10/10 300 м
[]
+3.5 +1.2 85 -4 -4 998.4 997.1
З 9-10
{11}
35 км 1/1 300 м
[]
+3.8 +1.6 86 -3 -3 999.1 997.8
З 10-12
{12}
30 км {ливн. осадки} 10/10 300 м
[]
+3.9 +2.2 89 -3 -3 999.8 998.5
Местоположение метеостанции Лемланд Нихамн (Финляндия): широта 59.96 долгота 19.95 высота над уровнем моря 8 м.
В архиве по умолчанию представлена погода в Лемланд Нихамн за последнюю неделю. Архивные данные за месяц целиком и за предыдущие месяцы, начиная с января 2011 года, Вы можете получить, выбрав интересующий диапазон дат из раскрывающегося списка и нажав кнопку "Найти!".
*Определитесь, кто Вы:
Внимание! Время в таблицах - всемирное. Для получения местного времени необходимо прибавить поправку, которая равна 1 ч.
Смотрите также архив погоды в соседних городах и на ближайших метеорологических станциях:
Партнеры нашего сайта:      
Пояснения к столбцам:
  • Ветер - указаны скорость ветра в м/с - средняя за 10 мин, порывы в срок и между сроками (в фигурных скобках) и направление, откуда дует ветер: С - северный,
  • СВ - северо-восточный, В - восточный, ЮВ - юго-восточный, Ю - южный, ЮЗ - юго-западный, З - западный, СЗ - северо-западный.
  • Видимость - горизонтальная дальность видимости в метрах или километрах. При видимости от 1 до 10 км при отсутствии осадков обычно наблюдается дымка, при ухудшении видимости до 1 км и менее - туман. В сухую погоду видимость может ухудшаться дымом, пылью или мглою.
  • Явления - указаны атмосферные явления, наблюдавшиеся в срок или в последний час перед сроком; фигурными скобками обозначены явления, наблюдавшиеся между сроками (за 1-3 часа до срока); квадратными скобками обозначены град или гололедные отложения с указанием их диаметра в мм.
  • Облачность - указаны через наклонную черту общая и нижняя облачность в баллах и высота нижней границы облаков в метрах; квадратными скобками обозначены формы облаков: Ci - перистые, Cs - перисто-слоистые, Cc - перисто-кучевые, Ac - высококучевые, As - высокослоистые, Sc - слоисто-кучевые, Ns - слоисто-дождевые, Cu - кучевые, Cb - кучево-дождевые. Подробнее классификацию облаков см. в Атласе облаков (PDF).
  • T - Температура воздуха - температура, измеренная на высоте 2 м над землей.
  • Td - Температура точки росы - температура, при понижении до которой содержащийся в воздухе водяной пар достигнет насыщения.
  • f - Относительная влажность воздуха - влажноcть воздуха, измеренная на высоте 2 м над землей.
  • Te - Эффективная температура - температура, которую ощущает одетый по сезону человек в тени. Характеристика душности погоды. При расчете учитывается влияние влажности воздуха и скорости ветра на теплоощущения человека.
  • Tes - Эффективная температура на солнце - температура, которую ощущает человек, с поправкой на солнечный нагрев. Характеристика знойности погоды. Зависит от высоты солнца над горизонтом, облачности и скорости ветра. Ночью, в пасмурную погоду, а также при ветре 12 м/с и более поправка равна нулю.
  • P - Атмосферное давление - приведенное к уровню моря атмосферное давление.
  • Po - Атмосферное давление - измеренное на уровне метеостанции атмосферное давление.
  • Tmin - Минимальная температура - минимум температуры воздуха на высоте 2 м над землей.
  • Tmax - Максимальная температура - максимум температуры воздуха на высоте 2 м над землей.
  • R - Количество осадков - Количество выпавших осадков за период времени, мм. При наведении курсора мыши на число - период времени, за который выпало указанное количество осадков.
  • R24 - Количество осадков - Количество выпавших осадков за 24 часа, мм.
  • S - Снежный покров - Высота снежного покрова, см. При наведении курсора мыши на число - состояние снежного покрова и степень покрытия местности в баллах.